TimeEDT,TemperatureF,Dew PointF,Humidity,Sea Level PressureIn,VisibilityMPH,Wind Direction,Wind SpeedMPH,Gust SpeedMPH,PrecipitationIn,Events,Conditions,WindDirDegrees,DateUTC
12:15 AM,74.3,72.3,94,29.76,10.0,Calm,Calm,-,N/A,,Clear,0,2013-06-28 04:15:00
12:35 AM,73.6,72.1,95,29.76,5.0,SE,4.6,-,N/A,,Clear,140,2013-06-28 04:35:00
12:55 AM,73.6,72.5,96,29.76,7.0,SSE,4.6,-,N/A,,Clear,150,2013-06-28 04:55:00
1:15 AM,73.8,72.7,96,29.76,5.0,Calm,Calm,-,N/A,,Clear,0,2013-06-28 05:15:00
1:35 AM,73.8,72.7,96,29.77,7.0,South,3.5,-,N/A,,Clear,170,2013-06-28 05:35:00
1:55 AM,73.6,72.3,96,29.76,10.0,SSE,3.5,-,N/A,,Clear,160,2013-06-28 05:55:00
2:15 AM,73.4,72.0,95,29.76,10.0,Calm,Calm,-,N/A,,Clear,0,2013-06-28 06:15:00
2:35 AM,73.4,72.0,95,29.76,7.0,Calm,Calm,-,N/A,,Clear,0,2013-06-28 06:35:00
2:55 AM,73.8,72.7,96,29.75,5.0,Calm,Calm,-,N/A,,Clear,0,2013-06-28 06:55:00
3:15 AM,73.6,72.5,96,29.75,4.0,Calm,Calm,-,N/A,,Clear,0,2013-06-28 07:15:00
3:35 AM,73.4,72.5,97,29.74,3.0,Calm,Calm,-,N/A,,Clear,0,2013-06-28 07:35:00
3:55 AM,72.9,72.0,97,29.73,3.0,SE,5.8,-,N/A,,Clear,140,2013-06-28 07:55:00
4:15 AM,74.1,73.2,97,29.73,3.0,South,4.6,-,N/A,,Clear,180,2013-06-28 08:15:00
4:35 AM,74.3,73.4,97,29.73,3.0,South,3.5,-,N/A,,Clear,170,2013-06-28 08:35:00
4:55 AM,74.3,73.4,97,29.72,3.0,Calm,Calm,-,N/A,,Clear,0,2013-06-28 08:55:00
5:15 AM,74.3,73.4,97,29.73,2.5,Calm,Calm,-,N/A,,Clear,0,2013-06-28 09:15:00
5:35 AM,74.1,73.2,97,29.72,2.5,Calm,Calm,-,N/A,,Clear,0,2013-06-28 09:35:00
5:55 AM,73.9,73.0,97,29.73,2.5,Calm,Calm,-,N/A,,Clear,0,2013-06-28 09:55:00
6:15 AM,73.9,73.0,97,29.73,2.0,Calm,Calm,-,N/A,,Clear,0,2013-06-28 10:15:00
6:35 AM,73.8,72.9,97,29.73,2.0,SSW,3.5,-,N/A,,Clear,210,2013-06-28 10:35:00
6:55 AM,73.9,73.4,98,29.74,2.5,SW,3.5,-,N/A,,Clear,220,2013-06-28 10:55:00
7:15 AM,74.5,73.6,97,29.74,3.0,SSW,4.6,-,N/A,,Scattered Clouds,210,2013-06-28 11:15:00
7:35 AM,74.8,73.9,97,29.73,3.0,SSW,3.5,-,N/A,,Overcast,200,2013-06-28 11:35:00
7:55 AM,75.4,74.5,97,29.73,3.0,SSW,4.6,-,N/A,,Overcast,200,2013-06-28 11:55:00
8:55 AM,77.9,74.3,89,29.74,5.0,SW,5.8,-,N/A,,Scattered Clouds,220,2013-06-28 12:55:00
9:15 AM,79.2,74.1,84,29.74,7.0,WSW,4.6,-,N/A,,Scattered Clouds,240,2013-06-28 13:15:00
9:35 AM,80.1,74.3,82,29.74,7.0,SSW,4.6,-,N/A,,Clear,210,2013-06-28 13:35:00
9:55 AM,81.5,74.7,80,29.73,10.0,SW,5.8,-,N/A,,Clear,220,2013-06-28 13:55:00
10:15 AM,82.4,74.7,77,29.73,10.0,Calm,Calm,-,N/A,,Clear,0,2013-06-28 14:15:00
10:35 AM,83.3,73.9,73,29.73,10.0,SSW,3.5,-,N/A,,Clear,200,2013-06-28 14:35:00
10:55 AM,84.4,73.6,70,29.73,10.0,SSW,6.9,-,N/A,,Clear,210,2013-06-28 14:55:00
11:15 AM,85.1,72.0,65,29.72,10.0,South,3.5,-,N/A,,Clear,190,2013-06-28 15:15:00
11:35 AM,86.2,71.4,61,29.72,10.0,SSW,4.6,-,N/A,,Clear,210,2013-06-28 15:35:00
11:55 AM,86.9,70.7,58,29.73,10.0,SSW,5.8,-,N/A,,Clear,200,2013-06-28 15:55:00
12:15 PM,87.4,68.7,54,29.72,10.0,SW,6.9,-,N/A,,Clear,220,2013-06-28 16:15:00
12:35 PM,88.2,69.4,54,29.72,10.0,SW,4.6,-,N/A,,Clear,220,2013-06-28 16:35:00
12:55 PM,88.9,69.3,52,29.71,10.0,South,6.9,-,N/A,,Clear,190,2013-06-28 16:55:00
1:15 PM,89.4,68.5,50,29.71,10.0,SW,4.6,-,N/A,,Clear,220,2013-06-28 17:15:00
1:35 PM,89.4,68.5,50,29.70,10.0,SW,4.6,-,N/A,,Scattered Clouds,220,2013-06-28 17:35:00
1:55 PM,90.1,68.5,49,29.70,10.0,SSW,6.9,-,N/A,,Scattered Clouds,200,2013-06-28 17:55:00
2:15 PM,90.3,67.8,47,29.69,10.0,SSW,5.8,-,N/A,,Clear,200,2013-06-28 18:15:00
2:35 PM,90.9,69.8,50,29.69,10.0,SW,6.9,-,N/A,,Scattered Clouds,230,2013-06-28 18:35:00
2:55 PM,90.5,68.4,48,29.68,10.0,South,6.9,-,N/A,,Scattered Clouds,180,2013-06-28 18:55:00
3:15 PM,90.9,70.2,50,29.67,10.0,South,8.1,-,N/A,,Clear,190,2013-06-28 19:15:00
3:35 PM,91.4,68.7,47,29.66,10.0,SSW,5.8,-,N/A,,Scattered Clouds,210,2013-06-28 19:35:00
3:55 PM,91.0,69.8,50,29.65,10.0,SSW,6.9,-,N/A,,Clear,210,2013-06-28 19:55:00
4:15 PM,91.4,68.2,46,29.65,10.0,SSW,6.9,-,N/A,,Clear,200,2013-06-28 20:15:00
4:35 PM,91.0,68.7,48,29.64,10.0,South,6.9,-,N/A,,Clear,190,2013-06-28 20:35:00
4:55 PM,91.4,69.4,48,29.63,10.0,SSW,4.6,-,N/A,,Clear,210,2013-06-28 20:55:00
5:15 PM,91.4,68.4,47,29.63,10.0,SSW,5.8,-,N/A,,Clear,200,2013-06-28 21:15:00
5:35 PM,91.4,69.6,49,29.62,10.0,South,8.1,-,N/A,,Clear,180,2013-06-28 21:35:00
5:55 PM,90.9,68.2,47,29.61,10.0,SSW,5.8,-,N/A,,Clear,200,2013-06-28 21:55:00
6:15 PM,89.8,69.3,51,29.61,10.0,SSW,8.1,-,N/A,,Clear,200,2013-06-28 22:15:00
6:35 PM,90.5,70.5,52,29.62,10.0,SSW,8.1,-,N/A,,Mostly Cloudy,200,2013-06-28 22:35:00
6:55 PM,88.9,70.3,54,29.62,10.0,South,6.9,-,N/A,,Scattered Clouds,190,2013-06-28 22:55:00
7:15 PM,87.8,70.7,57,29.62,10.0,South,5.8,-,N/A,,Clear,180,2013-06-28 23:15:00
7:35 PM,86.7,70.7,59,29.63,10.0,South,4.6,-,N/A,,Clear,180,2013-06-28 23:35:00
7:55 PM,85.8,71.1,61,29.64,10.0,SSW,3.5,-,N/A,,Clear,200,2013-06-28 23:55:00
8:15 PM,84.6,71.1,64,29.63,10.0,Calm,Calm,-,N/A,,Clear,0,2013-06-29 00:15:00
8:35 PM,80.6,73.0,78,29.64,10.0,North,3.5,-,N/A,,Clear,360,2013-06-29 00:35:00
8:55 PM,79.9,72.5,78,29.62,10.0,Calm,Calm,-,N/A,,Clear,0,2013-06-29 00:55:00
9:15 PM,79.3,73.0,81,29.62,10.0,Calm,Calm,-,N/A,,Scattered Clouds,0,2013-06-29 01:15:00
9:35 PM,78.8,73.2,83,29.63,10.0,Calm,Calm,-,N/A,,Scattered Clouds,0,2013-06-29 01:35:00
9:55 PM,77.9,72.5,83,29.62,10.0,Calm,Calm,-,N/A,,Clear,0,2013-06-29 01:55:00
10:15 PM,77.2,72.0,84,29.64,10.0,North,8.1,-,N/A,,Scattered Clouds,10,2013-06-29 02:15:00
10:35 PM,77.4,71.6,82,29.64,10.0,Calm,Calm,-,N/A,,Mostly Cloudy,0,2013-06-29 02:35:00
10:55 PM,77.5,71.2,81,29.69,10.0,NW,20.7,28.8,N/A,,Mostly Cloudy,310,2013-06-29 02:55:00
11:15 PM,74.8,67.1,77,29.69,10.0,NW,13.8,31.1,N/A,,Overcast,310,2013-06-29 03:15:00
11:35 PM,71.6,68.9,91,29.68,2.5,Calm,Calm,-,0.22,Rain,Light Rain,0,2013-06-29 03:35:00
11:55 PM,71.6,69.8,94,29.67,1.8,South,3.5,-,0.32,Rain,Light Rain,190,2013-06-29 03:55:00